DPV1018 VNKT-VQPR

Flight info

Callsign DPV1018
Flight time N/A
Altitude 35000
Route IGRIS1E KIMTI G348 SUBSU DCT TAKTI DCT PRO
Aircraft A319/M-SDE3FGHIRWY/LB1

Departure

Time N/A
Airport Tribhuvan International Airport (VNKT)

Arrival

Time 2026-04-28 15:52
Airport Paro International Airport (VQPR)
Time Latitude Longitude Altitude Speed Heading
2026-04-28 15:35 27.31442 89.52923 13133 ft 263 kts 192°
2026-04-28 15:35 27.35528 89.47041 10910 ft 263 kts 123°
2026-04-28 15:35 27.34574 89.48809 11613 ft 263 kts 128°
2026-04-28 15:36 27.33145 89.50111 12190 ft 263 kts 158°
2026-04-28 15:36 27.31369 89.50623 12882 ft 259 kts 177°
2026-04-28 15:36 27.29592 89.50472 13582 ft 252 kts 195°
2026-04-28 15:36 27.27981 89.49731 14279 ft 242 kts 213°
2026-04-28 15:37 27.26722 89.48549 14940 ft 231 kts 230°
2026-04-28 15:37 27.25875 89.47087 15609 ft 218 kts 246°
2026-04-28 15:37 27.25450 89.45519 16273 ft 202 kts 262°
2026-04-28 15:37 27.25354 89.44486 16592 ft 199 kts 265°
2026-04-28 15:38 27.25097 89.42395 17006 ft 204 kts 252°
2026-04-28 15:38 27.24622 89.40881 17306 ft 207 kts 250°
2026-04-28 15:38 27.24227 89.39308 17500 ft 205 kts 259°
2026-04-28 15:38 27.24106 89.37756 17684 ft 198 kts 271°
2026-04-28 15:39 27.24270 89.36221 17867 ft 197 kts 283°
2026-04-28 15:39 27.24714 89.34762 18057 ft 197 kts 295°
2026-04-28 15:39 27.25419 89.33430 18213 ft 198 kts 307°
2026-04-28 15:39 27.26367 89.32275 18239 ft 198 kts 319°
2026-04-28 15:40 27.27482 89.31352 18254 ft 198 kts 325°
2026-04-28 15:40 27.28646 89.30446 18264 ft 198 kts 324°
2026-04-28 15:40 27.29794 89.29545 18272 ft 198 kts 324°
2026-04-28 15:40 27.30983 89.28767 18266 ft 197 kts 341°
2026-04-28 15:41 27.32328 89.28416 18273 ft 195 kts 350°
2026-04-28 15:41 27.33666 89.28175 18073 ft 192 kts 350°
2026-04-28 15:41 27.35010 89.27914 17659 ft 194 kts 349°
2026-04-28 15:41 27.36275 89.27639 17281 ft 194 kts 348°
2026-04-28 15:42 27.37626 89.27326 16899 ft 192 kts 347°
2026-04-28 15:42 27.38955 89.27008 16429 ft 198 kts 347°
2026-04-28 15:42 27.40315 89.26617 15923 ft 204 kts 340°
2026-04-28 15:42 27.41698 89.26076 15416 ft 211 kts 342°
2026-04-28 15:43 27.43169 89.25779 14857 ft 218 kts 356°
2026-04-28 15:43 27.44666 89.25959 14255 ft 220 kts 14°
2026-04-28 15:43 27.46071 89.26657 13675 ft 223 kts 32°
2026-04-28 15:43 27.47239 89.27843 13157 ft 223 kts 51°
2026-04-28 15:44 27.48010 89.29332 12635 ft 223 kts 69°
2026-04-28 15:44 27.48346 89.31071 11827 ft 235 kts 88°
2026-04-28 15:44 27.48161 89.32863 11285 ft 231 kts 106°
2026-04-28 15:44 27.47506 89.34473 10928 ft 220 kts 124°
2026-04-28 15:45 27.46506 89.35726 10577 ft 210 kts 141°
2026-04-28 15:45 27.45369 89.36722 10263 ft 200 kts 141°
2026-04-28 15:45 27.44410 89.37880 9798 ft 200 kts 125°
2026-04-28 15:45 27.43757 89.39226 9367 ft 194 kts 120°
2026-04-28 15:46 27.43011 89.40462 8859 ft 191 kts 128°
2026-04-28 15:46 27.42119 89.41582 8212 ft 194 kts 148°
2026-04-28 15:46 27.40873 89.42044 7859 ft 176 kts 158°
2026-04-28 15:46 27.39831 89.42638 8095 ft 162 kts 149°
2026-04-28 15:47 27.39040 89.43607 8328 ft 178 kts 114°
2026-04-28 15:47 27.38735 89.44914 8610 ft 167 kts 100°
2026-04-28 15:47 27.38462 89.46161 8832 ft 163 kts 114°
2026-04-28 15:47 27.37765 89.47132 9056 ft 161 kts 149°
2026-04-28 15:48 27.36741 89.47193 8912 ft 153 kts 217°
2026-04-28 15:48 27.36367 89.46114 8206 ft 165 kts 294°
2026-04-28 15:48 27.37235 89.45472 8120 ft 148 kts 351°
2026-04-28 15:48 27.38216 89.45029 8022 ft 153 kts 299°
2026-04-28 15:49 27.38496 89.43918 7993 ft 147 kts 295°
2026-04-28 15:49 27.39215 89.43169 7649 ft 143 kts 331°
2026-04-28 15:49 27.40118 89.42614 7714 ft 151 kts 329°
2026-04-28 15:49 27.41017 89.42060 8174 ft 146 kts 341°
2026-04-28 15:50 27.42038 89.41990 8525 ft 147 kts 15°
2026-04-28 15:50 27.42985 89.42493 8702 ft 153 kts 39°
2026-04-28 15:50 27.43769 89.43298 9012 ft 153 kts 40°
2026-04-28 15:50 27.44752 89.43655 9125 ft 154 kts 338°
2026-04-28 15:51 27.45375 89.42790 8658 ft 146 kts 262°
2026-04-28 15:51 27.44809 89.41977 8419 ft 140 kts 197°
2026-04-28 15:51 27.43828 89.41730 8220 ft 145 kts 191°
2026-04-28 15:51 27.42812 89.41599 7994 ft 147 kts 179°
2026-04-28 15:52 27.41788 89.41713 7747 ft 145 kts 168°
2026-04-28 15:52 27.40877 89.42129 7587 ft 137 kts 152°
2026-04-28 15:52 27.40277 89.42504 7564 ft 55 kts 153°
2026-04-28 15:52 27.40070 89.42635 7547 ft 17 kts 146°
2026-04-28 15:53 27.40023 89.42664 7534 ft 1 kts 292°
2026-04-28 15:53 27.40045 89.42648 7524 ft 3 kts 330°
2026-04-28 15:53 27.40081 89.42625 7515 ft 9 kts 330°
2026-04-28 15:53 27.40151 89.42580 7513 ft 13 kts 330°
2026-04-28 15:54 27.40260 89.42511 7520 ft 22 kts 329°
2026-04-28 15:54 27.40393 89.42428 7528 ft 20 kts 330°
2026-04-28 15:54 27.40515 89.42350 7534 ft 18 kts 332°
2026-04-28 15:54 27.40617 89.42282 7538 ft 15 kts 330°
2026-04-28 15:55 27.40682 89.42207 7538 ft 12 kts 258°
2026-04-28 15:55 27.40649 89.42145 7539 ft 6 kts 232°
2026-04-28 15:55 27.40630 89.42110 7539 ft 2 kts 241°
2026-04-28 15:55 27.40630 89.42109 7539 ft 0 kts 241°